User: anonymous   Login
Location: Unspecified
(0.0000°N, 0.0000°E)
Time: 00:37:08
(UTC+00:00)
Language:

APRIZESAT 6 - Orbit

View from above orbital plane
View from above orbital plane
View from above satellite
View from above satellite

Ground track
Ground track

The orbit data is extracted from the following two-line orbital elements,

1 37793U 11044F   21331.84802229  .00000150  00000-0  31993-4 0  9999
2 37793  98.4170 171.8672 0046282 334.3933  36.7892 14.72600094552192
Epoch (UTC): 27 November 2021 20:21:09
Eccentricity: 0.0046282
inclination: 98.4170°
perigee height: 620 km
apogee height: 685 km
right ascension of ascending node: 171.8672°
argument of perigee: 334.3933°
revolutions per day: 14.72600094
mean anomaly at epoch: 36.7892°
orbit number at epoch: 55219

The dashed part of the orbit path shows where the satellite is in the earth's shadow,  

DLR